Find Starlink 11422

NORAD ID: 61944 Int'l Des: 2024-209 Owner: SPXS Country: US Constellation: starlink operational
LEOCIRCULAR

当前视图

正在加载3D地球...

About Starlink 11422

Starlink 11422 (NORAD 61944) is a starlink constellation satellite (v2 mini d2c) launched Nov 14, 2024 by SPXS of US. It operates in LEO, CIRCULAR orbit with a mass of 960.00 kg.

关于 Starlink 11422

正在加载描述...

即将过境

Passes for default location (London). Set your location on the main map for personalized predictions.

高度历史

Loading altitude history...

两行轨道根数

1 61944U 24209F 26171.44461887 .00111005 00000-0 90785-3 0 9990
2 61944 53.1577 224.9421 0001219 101.7054 258.4101 15.69737706 92811
Epoch: Jun 20, 2026 • Age: 25 hours

当前状态

高度 359.2 km
速度 7.70 km/s
星下点 18.24°N, 156.22°E
发射日期 Nov 14, 2024
运行时间 1.5 years
类型 internet

技术详情

分类 Payload
质量 960.00 kg
干质量 910.00 kg
总质量 960.00 kg
长度 0.30 m
直径 4.10 m
跨度 29.00 m
形状 Box + pan
制造商 SPXS
平台类型 Starlink V2MD
阶段状态 In Orbit
所有者/国家 SPXS/US

Most Searched